Zurück zum Katalog

COSMOS 1285 DEB

LostHEO
NORAD 33523·DEBRIS·🇷🇺 Russia

Gestartet Aug 4, 1981 von Plesetsk Cosmodrome

Loading…

Nächste Überflüge (nächste 24 Stunden)

TLE

VeraltetSource: Space-Track

Epoche: Jul 31, 2011, 20:15 UTC

1 33523U 81071Y   11212.84433352 -.00000341  00000-0  10000-3 0  9995
2 33523  67.5265  29.1603 6097445 133.4005 289.5488  1.98022195 75756

Verfolge COSMOS 1285 DEB in Echtzeit mit AllMySat

Download on the App Store